F3965 Weather Reports


time (UTC)temp
F
wind
direction
speed
knots
gust
knots
rain 1hr
in
rain 24hr
in
rain mn
in
humidity
%
barometer
mb
20260503201533 58 0 0.9 2.6 0.00 1.00 1.00 64 1011.6
20260503200034 58 0 0.0 1.7 0.00 1.00 1.00 65 1011.7
20260503194535 58 9 0.0 1.7 0.10 1.00 1.00 64 1011.6
20260503193030 58 9 1.7 2.6 0.11 1.00 1.00 64 1011.7
20260503191552 58 9 1.7 5.2 0.11 1.00 1.00 63 1011.6
20260503190037 59 27 2.6 9.6 0.10 0.99 0.99 63 1011.6
20260503184535 59 12 1.7 3.5 0.00 0.90 0.89 63 1011.6
20260503183040 59 32 1.7 4.3 0.05 0.89 0.88 63 1011.6
20260503181535 58 0 0.9 1.7 0.15 0.89 0.88 62 1011.3
20260503180033 58 0 0.0 2.6 0.45 0.89 0.88 61 1011.2
20260503174541 58 351 0.9 7.0 0.79 0.93 0.88 59 1011.2
20260503173030 59 18 7.8 15.6 0.73 0.87 0.82 58 1011.1
20260503171533 59 5 6.1 26.1 0.62 0.77 0.72 56 1010.8
20260503081544 64 295 0.9 6.1 0.00 0.39 0.00 53 1012.7
20260503071554 58 304 2.6 6.1 0.00 0.39 0.00 65 1013.0
20260503054545 54 291 2.6 5.2 0.00 0.39 0.00 65 1013.0
20260503053033 54 277 0.9 5.2 0.00 0.39 0.00 65 1012.9
20260503051544 54 262 0.9 4.3 0.00 0.39 0.00 65 1012.8
20260503050035 54 289 0.9 2.6 0.00 0.39 0.00 65 1012.8
20260503044535 54 0 0.0 1.7 0.00 0.39 0.00 65 1012.7
20260503043033 54 0 0.9 3.5 0.00 0.39 0.00 65 1012.7
20260503041533 54 321 1.7 3.5 0.00 0.39 0.00 65 1012.7
20260503040034 54 277 1.7 5.2 0.00 0.39 0.00 64 1012.7
20260503034530 55 0 0.9 2.6 0.00 0.39 0.00 64 1012.8
20260503033030 55 274 0.9 4.3 0.00 0.39 0.00 64 1012.9
20260503031532 55 295 0.9 2.6 0.00 0.39 0.00 64 1012.9
20260503030036 55 0 0.0 1.7 0.00 0.39 0.00 64 1013.0
20260503024542 55 0 0.0 1.7 0.00 0.39 0.00 64 1013.1
20260503023030 55 0 0.0 3.5 0.00 0.39 0.00 64 1013.2
20260503021534 56 294 2.6 4.3 0.00 0.39 0.00 64 1013.1
20260503020030 56 227 0.9 3.5 0.00 0.39 0.00 63 1013.4
20260503014528 56 221 0.0 2.6 0.00 0.39 0.00 63 1013.4
20260503013036 56 0 0.0 1.7 0.00 0.39 0.00 63 1013.5
20260503011530 57 221 1.7 2.6 0.00 0.39 0.00 63 1013.6
20260503010033 57 221 0.0 2.6 0.00 0.39 0.00 62 1013.8
20260503004537 57 221 0.0 1.7 0.00 0.39 0.00 62 1013.7
20260503003039 57 221 0.0 2.6 0.00 0.39 0.00 62 1013.9
20260503001534 57 220 0.0 1.7 0.00 0.39 0.00 62 1013.8
20260503000032 57 220 0.9 2.6 0.00 0.39 0.00 61 1013.9
20260502234545 58 220 1.7 2.6 0.00 0.39 0.00 61 1014.1
20260502233032 58 0 0.0 2.6 0.00 0.39 0.00 61 1014.2
20260502231532 58 0 0.0 3.5 0.00 0.39 0.00 61 1014.3
20260502230035 58 0 0.0 0.9 0.00 0.39 0.00 60 1014.2
20260502224535 58 201 0.9 1.7 0.00 0.39 0.00 60 1014.2
20260502223034 58 201 0.0 1.7 0.00 0.39 0.00 59 1014.1
20260502221530 58 201 0.0 1.7 0.00 0.39 0.00 59 1014.2
20260502220031 59 0 0.0 1.7 0.00 0.39 0.00 58 1014.1
20260502214537 59 201 0.9 2.6 0.00 0.39 0.39 58 1014.0
20260502213043 59 0 0.9 5.2 0.00 0.39 0.39 58 1014.0
20260502211537 59 0 0.0 1.7 0.00 0.39 0.39 56 1013.9
20260502210032 59 0 0.0 3.5 0.00 0.39 0.39 56 1013.9
20260502204532 60 300 0.0 2.6 0.00 0.39 0.39 55 1013.8
20260502203036 60 300 0.0 1.7 0.00 0.39 0.39 55 1013.7